Fort Campbell, KY

2:51 AM CDT on May 28, 2018 (GMT -0500)
Campbell Army Air Field

Weather History for KHOP - November, 2013

Change the Weather History Date:

Sunday, November 3, 2013

  Actual Average Record
Temperature  
Mean Temperature 44 °F -  
Max Temperature 57 °F 62 °F 80 °F (2003)
Min Temperature 32 °F 42 °F 23 °F (2006)
Degree Days  
Heating Degree Days 21    
Moisture  
Dew Point 34 °F    
Average Humidity 86    
Maximum Humidity 100    
Minimum Humidity 39    
Precipitation  
Precipitation 0.00 in - - ()
Sea Level Pressure  
Sea Level Pressure 30.26 in    
Wind  
Wind Speed 2 mph (South)    
Max Wind Speed 9 mph    
Max Gust Speed -    
Visibility 7 miles    
Events Fog    
Averages and records for this station are not official NWS values.
T = Trace of Precipitation, MM = Missing Value Source: NWS Daily Summary

Daily Weather History Graph

Daily Weather History Graph

Search for Another Location

Airport or City:

Astronomy

Nov. 03, 2013 Rise Set
Actual Time 6:15 AM CST 4:50 PM CST
Civil Twilight 5:48 AM CST 5:17 PM CST
Nautical Twilight 5:18 AM CST 5:48 PM CST
Astronomical Twilight 4:47 AM CST 6:18 PM CST
Moon 6:18 AM CST (11/3) 5:06 PM CST (11/3)
Length of Visible Light 11h 28m
Length of Day
10h 34m
New Moon, 0% of the Moon is Illuminated
Nov 3
New Moon
Nov 9
First Quarter
Nov 17
Full
Nov 25
Last Quarter
Dec 2
New

Hourly Weather History & Observations

Time (CST) Temp. Windchill Dew Point Humidity Pressure Visibility Wind Dir Wind Speed Gust Speed Precip Events Conditions
12:58 AM 39.4 °F 37.2 °F 39.0 °F 99% 30.20 in 10.0 mi WSW 3.5 mph - N/A   Clear
1:58 AM 38.8 °F - 38.8 °F 100% 30.20 in 10.0 mi Calm Calm - N/A   Clear
1:58 AM 37.6 °F - 37.6 °F 100% 30.22 in 10.0 mi WSW 1.2 mph - N/A   Clear
2:58 AM 35.8 °F - 35.8 °F 100% 30.23 in 10.0 mi WSW 2.3 mph - N/A   Clear
3:03 AM 35.6 °F 32.8 °F 35.6 °F 100% 30.22 in 9.0 mi WSW 3.5 mph - N/A   Clear
3:12 AM 35.6 °F - 35.6 °F 100% 30.22 in 9.0 mi SW 2.3 mph - N/A   Clear
3:26 AM 35.6 °F - 35.6 °F 100% 30.22 in 9.0 mi SW 2.3 mph - N/A   Clear
3:41 AM 35.6 °F - 35.6 °F 100% 30.22 in 9.0 mi SW 2.3 mph - N/A   Clear
3:46 AM 35.6 °F - 35.6 °F 100% 30.22 in 9.0 mi SW 2.3 mph - N/A   Clear
3:53 AM 35.6 °F - 35.6 °F 100% 30.23 in 9.0 mi SW 2.3 mph - N/A   Clear
3:58 AM 36.0 °F - 36.0 °F 100% 30.25 in 10.0 mi SW 2.3 mph - N/A   Clear
4:57 AM 35.6 °F - 35.6 °F 100% 30.25 in 9.0 mi SW 2.3 mph - N/A   Clear
4:58 AM 34.9 °F - 34.9 °F 100% 30.27 in 9.0 mi SW 2.3 mph - N/A   Clear
5:08 AM 35.6 °F - 35.6 °F 100% 30.25 in 9.0 mi SW 2.3 mph - N/A   Clear
5:58 AM 34.2 °F - 34.2 °F 100% 30.27 in 10.0 mi Calm Calm - N/A   Clear
6:06 AM 32.0 °F - 32.0 °F 100% 30.27 in 2.5 mi Calm Calm - N/A   Clear
6:07 AM 32.0 °F - 32.0 °F 100% 30.27 in 1.8 mi Calm Calm - N/A   Clear
6:08 AM 32.0 °F - 32.0 °F 100% 30.26 in 1.2 mi Calm Calm - N/A   Clear
6:09 AM 32.0 °F - 32.0 °F 100% 30.27 in 1.0 mi Calm Calm - N/A   Clear
6:11 AM 32.0 °F - 32.0 °F 100% 30.27 in 0.8 mi Calm Calm - N/A   Clear
6:12 AM 32.0 °F - 32.0 °F 100% 30.27 in 0.8 mi Calm Calm - N/A   Clear
6:13 AM 32.0 °F - 32.0 °F 100% 30.27 in 0.5 mi Calm Calm - N/A Fog Fog
6:15 AM 32.0 °F - 32.0 °F 100% 30.27 in 0.5 mi Calm Calm - N/A Fog Fog
6:16 AM 32.0 °F - 32.0 °F 100% 30.27 in 0.2 mi Variable 1.2 mph - N/A Fog Fog
6:17 AM 32.0 °F - 32.0 °F 100% 30.27 in 0.2 mi NNE 2.3 mph - N/A Fog Light Freezing Fog
6:29 AM 32.0 °F - 32.0 °F 100% 30.28 in 0.2 mi Calm Calm - N/A Fog Light Freezing Fog
10:58 AM 54.0 °F - 32.9 °F 45% 30.32 in 10.0 mi ESE 9.2 mph - N/A   Clear
11:58 AM 55.2 °F - 33.1 °F 43% 30.30 in 10.0 mi Variable 5.8 mph - N/A   Clear
12:58 PM 55.9 °F - 30.9 °F 39% 30.28 in 10.0 mi Variable 3.5 mph - N/A   Clear
1:58 PM 56.7 °F - 32.5 °F 40% 30.27 in 10.0 mi ENE 3.5 mph - N/A   Clear
2:58 PM 56.8 °F - 32.5 °F 40% 30.25 in 10.0 mi Variable 3.5 mph - N/A   Clear
3:58 PM 55.8 °F - 32.4 °F 41% 30.23 in 10.0 mi East 9.2 mph - N/A   Clear
4:58 PM 52.9 °F - 33.8 °F 48% 30.23 in 10.0 mi East 5.8 mph - N/A   Clear
5:58 PM 49.6 °F - 34.7 °F 56% 30.25 in 10.0 mi ENE 3.5 mph - N/A   Clear
6:58 PM 45.9 °F 44.6 °F 36.1 °F 69% 30.28 in 10.0 mi ENE 3.5 mph - N/A   Clear
7:58 PM 46.6 °F - 37.4 °F 70% 30.27 in 10.0 mi East 5.8 mph - N/A   Clear
8:58 PM 45.3 °F 43.0 °F 37.4 °F 74% 30.27 in 10.0 mi East 4.6 mph - N/A   Clear
9:58 PM 42.6 °F - 38.1 °F 84% 30.30 in 10.0 mi North 2.3 mph - N/A   Clear
10:58 PM 41.4 °F 39.4 °F 37.9 °F 88% 30.29 in 10.0 mi SE 3.5 mph - N/A   Clear